This is the latest recevied weather packets stored in our database for station/object OH6HPS. If no packets are shown the sender has not sent any weather packets the latest 10 day(s).
| Time | Temp. | Humidity | Pressure | Rain* | Wind** | Luminosity | Snow |
|---|---|---|---|---|---|---|---|
| 1777667163 | 8.33° C | 75% | 1014.5 hPa | 0 mm | - | 0 W/m² | - |
| 1777666563 | 8.89° C | 74% | 1014.5 hPa | 0 mm | - | 0 W/m² | - |
| 1777665963 | 8.89° C | 74% | 1014.6 hPa | 0 mm | - | 0 W/m² | - |
| 1777665364 | 9.44° C | 72% | 1014.6 hPa | 0 mm | - | 0 W/m² | - |
| 1777664764 | 10° C | 71% | 1014.6 hPa | 0 mm | - | 0 W/m² | - |
| 1777664163 | 10.56° C | 70% | 1014.7 hPa | 0 mm | - | 0 W/m² | - |
| 1777663562 | 10.56° C | 69% | 1014.8 hPa | 0 mm | - | 0 W/m² | - |
| 1777662964 | 11.11° C | 68% | 1014.9 hPa | 0 mm | - | 0 W/m² | - |
| 1777662362 | 11.11° C | 67% | 1014.8 hPa | 0 mm | - | 0 W/m² | - |
| 1777661764 | 11.67° C | 65% | 1014.9 hPa | 0 mm | - | 0 W/m² | - |
| 1777661164 | 11.67° C | 64% | 1014.8 hPa | 0 mm | - | 0 W/m² | - |
| 1777660562 | 12.22° C | 62% | 1014.9 hPa | 0 mm | - | 0 W/m² | - |
| 1777659963 | 12.22° C | 61% | 1015 hPa | 0 mm | - | 0 W/m² | - |
| 1777659364 | 12.78° C | 60% | 1014.9 hPa | 0 mm | - | 5 W/m² | - |
| 1777658763 | 13.33° C | 58% | 1015 hPa | 0 mm | - | 9 W/m² | - |
| 1777658163 | 13.89° C | 57% | 1015 hPa | 0 mm | - | 12 W/m² | - |
| 1777657562 | 14.44° C | 53% | 1015.1 hPa | 0 mm | - | 18 W/m² | - |
| 1777656962 | 15° C | 51% | 1015.1 hPa | 0 mm | - | 19 W/m² | - |
| 1777656368 | 15.56° C | 49% | 1015.2 hPa | 0 mm | - | 18 W/m² | - |
| 1777655763 | 16.67° C | 45% | 1015.3 hPa | 0 mm | - | 19 W/m² | - |
| 1777655165 | 16.67° C | 43% | 1015.4 hPa | 0 mm | - | 21 W/m² | - |
| 1777654563 | 17.22° C | 39% | 1015.6 hPa | 0 mm | - | 21 W/m² | - |
| 1777653962 | 17.78° C | 42% | 1015.7 hPa | 0 mm | - | 21 W/m² | - |
| 1777653363 | 17.78° C | 41% | 1015.7 hPa | 0 mm | - | 23 W/m² | - |
| 1777652762 | 18.33° C | 40% | 1015.7 hPa | 0 mm | - | 76 W/m² | - |
* Rain latest hour (hover to see other rain measurements)
** Current wind speed in m/s (hover to see current wind gust speed)